Kimball, NE

11:56 AM MDT on August 22, 2017 (GMT -0600)
Kimball Municipal-Arraj

Weather History for KIBM - October, 2013

Change the Weather History Date:

Friday, October 18, 2013

  Actual Average (KSNY) Record (KSNY)
Temperature  
Mean Temperature 33 °F -  
Max Temperature 41 °F 59 °F 85 °F (2003)
Min Temperature 25 °F 29 °F 19 °F (1996)
Degree Days  
Heating Degree Days 32    
Moisture  
Dew Point 28 °F    
Average Humidity 80    
Maximum Humidity 96    
Minimum Humidity 54    
Precipitation  
Precipitation 0.17 in - - ()
Sea Level Pressure  
Sea Level Pressure 30.11 in    
Wind  
Wind Speed 5 mph (WNW)    
Max Wind Speed 23 mph    
Max Gust Speed 32 mph    
Visibility 9 miles    
Events Snow    
Averages and records for this station are not official NWS values.
T = Trace of Precipitation, MM = Missing Value Source: NWS Daily Summary

Daily Weather History Graph

Daily Weather History Graph

Search for Another Location

Airport or City:

Trip Planner

Search our weather history database for the weather conditions in past years. The results will help you decide how hot, cold, wet, or windy it might be!

Date:

Astronomy

Oct. 18, 2013 Rise Set
Actual Time 8:10 AM CDT 7:08 PM CDT
Civil Twilight 7:42 AM CDT 7:36 PM CDT
Nautical Twilight 7:10 AM CDT 8:08 PM CDT
Astronomical Twilight 6:38 AM CDT 8:40 PM CDT
Moon 7:00 PM CDT (10/18) 7:48 AM CDT (10/18)
Length of Visible Light 11h 54m
Length of Day
10h 58m
Full, 100% of the Moon is Illuminated
Oct 18
Full
Oct 18
Full
Oct 26
Last Quarter
Nov 3
New
Nov 9
First Quarter

Hourly Weather History & Observations

Time (CDT) Temp. Windchill Dew Point Humidity Pressure Visibility Wind Dir Wind Speed Gust Speed Precip Events Conditions
12:15 AM 32.9 °F - 31.5 °F 94% 30.10 in 1.8 mi Calm Calm - N/A Snow Light Snow
12:35 AM 32.7 °F - 31.6 °F 96% 30.09 in 0.8 mi Calm Calm - N/A Snow Snow
12:55 AM 32.5 °F - 31.5 °F 96% 30.10 in 1.0 mi Calm Calm - N/A Snow Snow
1:15 AM 32.4 °F - 31.1 °F 95% 30.10 in 1.2 mi Calm Calm - N/A Snow Light Snow
1:35 AM 32.2 °F - 31.1 °F 96% 30.09 in 1.5 mi Calm Calm - 0.01 in Snow Light Snow
1:55 AM 32.0 °F - 31.1 °F 96% 30.09 in 2.5 mi Calm Calm - 0.01 in Snow Light Snow
2:15 AM 32.0 °F - 30.6 °F 94% 30.09 in 4.0 mi Calm Calm - N/A Snow Light Snow
2:35 AM 32.0 °F - 30.6 °F 94% 30.09 in 7.0 mi Calm Calm - N/A Snow Light Snow
2:55 AM 31.6 °F - 30.2 °F 94% 30.08 in 10.0 mi Calm Calm - N/A   Overcast
3:15 AM 30.7 °F - 29.1 °F 94% 30.09 in 10.0 mi Calm Calm - 0.01 in   Overcast
3:35 AM 30.7 °F - 29.1 °F 94% 30.08 in 10.0 mi Calm Calm - 0.04 in   Overcast
3:55 AM 29.8 °F - 28.4 °F 94% 30.09 in 7.0 mi Calm Calm - 0.05 in   Overcast
4:15 AM 29.7 °F - 28.2 °F 94% 30.09 in 10.0 mi Calm Calm - 0.01 in   Overcast
4:35 AM 29.5 °F - 28.0 °F 94% 30.09 in 10.0 mi Calm Calm - 0.02 in   Mostly Cloudy
4:55 AM 30.6 °F - 28.9 °F 94% 30.09 in 10.0 mi Calm Calm - 0.03 in   Overcast
5:15 AM 30.9 °F - 29.3 °F 94% 30.09 in 10.0 mi Calm Calm - 0.01 in   Overcast
5:35 AM 29.3 °F - 27.3 °F 92% 30.08 in 10.0 mi Calm Calm - 0.01 in   Scattered Clouds
5:55 AM 26.6 °F 22.6 °F 24.8 °F 93% 30.09 in 7.0 mi West 3.5 mph - 0.01 in   Clear
6:15 AM 28.2 °F 24.4 °F 26.6 °F 94% 30.09 in 10.0 mi West 3.5 mph - N/A   Scattered Clouds
6:35 AM 27.3 °F - 25.3 °F 92% 30.09 in 10.0 mi Calm Calm - N/A   Scattered Clouds
6:55 AM 25.2 °F - 23.0 °F 91% 30.09 in 10.0 mi Calm Calm - N/A   Mostly Cloudy
7:15 AM 25.9 °F 21.7 °F 23.7 °F 92% 30.09 in 10.0 mi West 3.5 mph - N/A   Scattered Clouds
7:35 AM 27.1 °F 21.8 °F 25.0 °F 92% 30.10 in 10.0 mi WNW 4.6 mph - N/A   Scattered Clouds
7:55 AM 28.0 °F 22.8 °F 25.3 °F 90% 30.10 in 10.0 mi WNW 4.6 mph - N/A   Clear
8:15 AM 28.0 °F 22.8 °F 25.2 °F 89% 30.10 in 10.0 mi West 4.6 mph - N/A   Clear
8:35 AM 27.9 °F 22.6 °F 24.8 °F 88% 30.12 in 10.0 mi WNW 4.6 mph - N/A   Scattered Clouds
8:55 AM 26.6 °F 22.6 °F 23.5 °F 88% 30.12 in 10.0 mi West 3.5 mph - N/A   Scattered Clouds
9:15 AM 26.2 °F 22.1 °F 23.4 °F 89% 30.12 in 10.0 mi West 3.5 mph - N/A   Clear
9:35 AM 26.8 °F 22.8 °F 23.5 °F 88% 30.13 in 10.0 mi West 3.5 mph - N/A   Clear
9:55 AM 29.7 °F 24.7 °F 26.1 °F 86% 30.14 in 10.0 mi WNW 4.6 mph - N/A   Scattered Clouds
10:15 AM 31.1 °F 26.4 °F 27.3 °F 86% 30.16 in 7.0 mi NW 4.6 mph - N/A Snow Light Snow
10:25 AM 30.2 °F 26.7 °F 28.4 °F 93% 30.16 in 1.5 mi NW 3.5 mph - N/A Snow Light Snow
10:35 AM 32.0 °F 27.5 °F 29.8 °F 92% 30.16 in 7.0 mi NW 4.6 mph - N/A Snow Light Snow
10:55 AM 33.4 °F 26.6 °F 31.1 °F 91% 30.16 in 3.0 mi NNW 8.1 mph - N/A Snow Light Snow
11:06 AM 33.8 °F 27.0 °F 30.2 °F 87% 30.16 in 7.0 mi NNW 8.1 mph - N/A   Overcast
11:15 AM 34.0 °F 26.6 °F 29.8 °F 85% 30.16 in 10.0 mi NNW 9.2 mph - N/A   Overcast
11:25 AM 35.6 °F 25.5 °F 28.4 °F 75% 30.15 in 10.0 mi NNW 17.3 mph 20.7 mph 0.01 in   Overcast
11:35 AM 34.3 °F 24.6 °F 29.3 °F 82% 30.15 in 10.0 mi NNW 15.0 mph 23.0 mph 0.01 in   Overcast
11:46 AM 35.6 °F 26.6 °F 30.2 °F 81% 30.16 in 10.0 mi NW 13.8 mph 21.9 mph 0.02 in   Overcast
11:55 AM 34.7 °F 24.7 °F 29.5 °F 81% 30.16 in 10.0 mi NW 16.1 mph 20.7 mph 0.02 in   Mostly Cloudy
12:05 PM 35.6 °F 25.9 °F 28.4 °F 75% 30.16 in 10.0 mi NW 16.1 mph 23.0 mph N/A   Mostly Cloudy
12:15 PM 36.0 °F 25.0 °F 29.5 °F 77% 30.16 in 10.0 mi NW 20.7 mph - 0.01 in   Mostly Cloudy
12:35 PM 36.1 °F 27.3 °F 30.4 °F 80% 30.16 in 10.0 mi NW 13.8 mph 25.3 mph 0.03 in   Overcast
12:55 PM 36.5 °F 25.4 °F 29.3 °F 75% 30.15 in 10.0 mi NW 21.9 mph 27.6 mph 0.04 in   Scattered Clouds
1:15 PM 37.0 °F 26.2 °F 27.7 °F 69% 30.16 in 10.0 mi NW 21.9 mph 27.6 mph 0.01 in   Clear
1:35 PM 37.8 °F 26.8 °F 26.6 °F 64% 30.15 in 10.0 mi NNW 23.0 mph 28.8 mph 0.01 in   Scattered Clouds
1:55 PM 38.3 °F 28.7 °F 26.4 °F 62% 30.14 in 10.0 mi NW 18.4 mph 32.2 mph 0.01 in   Scattered Clouds
2:15 PM 38.3 °F 28.1 °F 25.5 °F 60% 30.13 in 10.0 mi NNW 20.7 mph 25.3 mph N/A   Scattered Clouds
2:35 PM 39.2 °F 29.6 °F 24.3 °F 55% 30.12 in 10.0 mi NNW 19.6 mph 29.9 mph N/A   Scattered Clouds
2:55 PM 38.7 °F 29.1 °F 24.6 °F 57% 30.12 in 10.0 mi NW 18.4 mph 26.5 mph N/A   Scattered Clouds
3:15 PM 39.7 °F 30.9 °F 25.0 °F 56% 30.11 in 10.0 mi NW 17.3 mph 27.6 mph N/A   Mostly Cloudy
3:35 PM 41.5 °F 33.2 °F 26.1 °F 54% 30.11 in 10.0 mi NW 17.3 mph 25.3 mph N/A   Mostly Cloudy
3:55 PM 40.5 °F 31.5 °F 27.5 °F 60% 30.10 in 10.0 mi NW 18.4 mph - N/A   Scattered Clouds
4:15 PM 41.4 °F 32.4 °F 27.3 °F 57% 30.10 in 10.0 mi WNW 19.6 mph 26.5 mph N/A   Scattered Clouds
4:35 PM 41.9 °F 33.4 °F 27.0 °F 55% 30.09 in 10.0 mi WNW 18.4 mph 26.5 mph N/A   Mostly Cloudy
4:55 PM 41.9 °F 34.3 °F 27.0 °F 55% 30.09 in 10.0 mi WNW 15.0 mph 24.2 mph N/A   Scattered Clouds
5:15 PM 41.7 °F 34.1 °F 27.1 °F 56% 30.09 in 10.0 mi WNW 15.0 mph 21.9 mph N/A   Clear
5:35 PM 40.1 °F 32.7 °F 25.5 °F 56% 30.08 in 10.0 mi NW 12.7 mph - N/A   Scattered Clouds
5:55 PM 39.9 °F 35.1 °F 25.7 °F 57% 30.09 in 10.0 mi NW 6.9 mph - N/A   Scattered Clouds
6:15 PM 39.7 °F 37.6 °F 26.8 °F 60% 30.08 in 10.0 mi NW 3.5 mph - N/A   Clear
6:35 PM 39.6 °F 34.7 °F 26.4 °F 59% 30.08 in 10.0 mi WNW 6.9 mph - N/A   Scattered Clouds
6:55 PM 37.4 °F 33.8 °F 28.8 °F 71% 30.08 in 10.0 mi West 4.6 mph - N/A   Clear
7:15 PM 35.6 °F 30.7 °F 28.0 °F 74% 30.08 in 10.0 mi West 5.8 mph - N/A   Clear
7:35 PM 33.8 °F 29.6 °F 27.9 °F 79% 30.08 in 10.0 mi West 4.6 mph - N/A   Scattered Clouds
7:55 PM 32.2 °F 28.9 °F 27.7 °F 83% 30.08 in 10.0 mi West 3.5 mph - N/A   Clear
8:15 PM 32.0 °F 26.4 °F 27.5 °F 83% 30.08 in 10.0 mi WNW 5.8 mph - N/A   Clear
8:35 PM 32.0 °F 26.4 °F 27.3 °F 83% 30.08 in 10.0 mi WNW 5.8 mph - N/A   Clear
8:55 PM 32.4 °F 26.9 °F 27.9 °F 83% 30.08 in 10.0 mi WNW 5.8 mph - N/A   Clear
9:15 PM 32.4 °F 25.3 °F 27.7 °F 83% 30.08 in 10.0 mi NW 8.1 mph - N/A   Clear
9:35 PM 32.9 °F 24.7 °F 27.5 °F 81% 30.08 in 10.0 mi WNW 10.4 mph - N/A   Clear
9:55 PM 32.2 °F 24.4 °F 27.3 °F 82% 30.08 in 10.0 mi WNW 9.2 mph - N/A   Clear
10:15 PM 32.2 °F 23.8 °F 27.0 °F 81% 30.08 in 10.0 mi WNW 10.4 mph - N/A   Clear
10:35 PM 32.2 °F 25.0 °F 26.6 °F 80% 30.08 in 10.0 mi WNW 8.1 mph - N/A   Clear
10:55 PM 32.9 °F 24.1 °F 26.4 °F 77% 30.07 in 10.0 mi West 11.5 mph - N/A   Clear
11:15 PM 32.9 °F 25.3 °F 25.5 °F 74% 30.08 in 10.0 mi West 9.2 mph - N/A   Clear
11:35 PM 32.2 °F 24.4 °F 24.8 °F 74% 30.08 in 10.0 mi West 9.2 mph - N/A   Clear
11:55 PM 31.1 °F 23.7 °F 25.0 °F 78% 30.08 in 10.0 mi WSW 8.1 mph - N/A   Clear